Time,TemperatureF,DewpointF,PressureIn,WindDirection,WindDirectionDegrees,WindSpeedMPH,WindSpeedGustMPH,Humidity,HourlyPrecipIn,Conditions,Clouds,dailyrainin,SoftwareType,DateUTC
2013-01-08 00:03:00,37.8,26.4,29.87,WSW,254,3.0,7.0,63,0.00,,---,0.00,VWS V14.00,2013-01-08 07:03:00,
2013-01-08 00:08:00,37.4,26.4,29.87,WSW,257,6.0,7.0,64,0.00,,---,0.00,VWS V14.00,2013-01-08 07:08:00,
2013-01-08 00:13:00,36.9,26.2,29.86,WSW,244,4.0,7.0,65,0.00,,---,0.00,VWS V14.00,2013-01-08 07:13:00,
2013-01-08 00:18:00,36.7,25.7,29.86,SW,233,0.0,7.0,64,0.00,,---,0.00,VWS V14.00,2013-01-08 07:18:00,
2013-01-08 00:23:00,36.1,25.5,29.87,SW,233,0.0,7.0,65,0.00,,---,0.00,VWS V14.00,2013-01-08 07:23:00,
2013-01-08 00:28:00,36.0,25.8,29.87,SW,233,0.0,7.0,66,0.00,,---,0.00,VWS V14.00,2013-01-08 07:28:00,
2013-01-08 00:33:00,36.1,26.6,29.87,SW,227,0.0,0.0,68,0.00,,---,0.00,VWS V14.00,2013-01-08 07:33:00,
2013-01-08 00:38:00,36.3,26.4,29.87,SW,227,0.0,0.0,67,0.00,,---,0.00,VWS V14.00,2013-01-08 07:38:00,
2013-01-08 00:43:00,37.8,27.5,29.87,WNW,290,5.0,12.0,66,0.00,,---,0.00,VWS V14.00,2013-01-08 07:43:00,
2013-01-08 00:48:00,38.6,27.1,29.87,West,265,6.0,12.0,63,0.00,,---,0.00,VWS V14.00,2013-01-08 07:48:00,
2013-01-08 00:53:00,38.9,27.0,29.88,West,266,0.0,12.0,62,0.00,,---,0.00,VWS V14.00,2013-01-08 07:53:00,
2013-01-08 00:58:00,39.0,27.1,29.87,SW,235,4.0,12.0,62,0.00,,---,0.00,VWS V14.00,2013-01-08 07:58:00,
2013-01-08 01:03:00,39.1,27.2,29.87,WSW,246,4.0,6.0,62,0.00,,---,0.00,VWS V14.00,2013-01-08 08:03:00,
2013-01-08 01:08:00,39.3,27.0,29.87,WSW,247,0.0,6.0,61,0.00,,---,0.00,VWS V14.00,2013-01-08 08:08:00,
2013-01-08 01:14:00,39.8,27.5,29.87,WSW,251,0.0,6.0,61,0.00,,---,0.00,VWS V14.00,2013-01-08 08:14:00,
2013-01-08 01:19:00,40.5,28.1,29.87,WSW,256,0.0,9.0,61,0.00,,---,0.00,VWS V14.00,2013-01-08 08:19:00,
2013-01-08 01:24:00,41.7,28.9,29.87,ENE,66,6.0,9.0,60,0.00,,---,0.00,VWS V14.00,2013-01-08 08:24:00,
2013-01-08 01:29:00,42.9,28.7,29.87,North,11,5.0,11.0,57,0.00,,---,0.00,VWS V14.00,2013-01-08 08:29:00,
2013-01-08 01:34:00,43.1,28.9,29.88,East,81,2.0,10.0,57,0.00,,---,0.00,VWS V14.00,2013-01-08 08:34:00,
2013-01-08 01:39:00,43.6,29.4,29.88,ENE,78,0.0,12.0,57,0.00,,---,0.00,VWS V14.00,2013-01-08 08:39:00,
2013-01-08 01:44:00,43.9,29.7,29.88,ENE,76,0.0,12.0,57,0.00,,---,0.00,VWS V14.00,2013-01-08 08:44:00,
2013-01-08 01:49:00,43.8,29.1,29.88,SE,124,0.0,12.0,56,0.00,,---,0.00,VWS V14.00,2013-01-08 08:49:00,
2013-01-08 01:54:00,43.4,28.8,29.88,SSW,202,1.0,12.0,56,0.00,,---,0.00,VWS V14.00,2013-01-08 08:54:00,
2013-01-08 01:59:00,43.1,28.0,29.88,SW,224,8.0,12.0,55,0.00,,---,0.00,VWS V14.00,2013-01-08 08:59:00,
2013-01-08 02:04:00,42.7,29.0,29.88,SW,223,1.0,1.0,58,0.00,,---,0.00,VWS V14.00,2013-01-08 09:04:00,
2013-01-08 02:09:00,43.3,29.1,29.88,SW,223,0.0,1.0,57,0.00,,---,0.00,VWS V14.00,2013-01-08 09:09:00,
2013-01-08 02:14:00,43.6,29.4,29.88,NE,39,0.0,1.0,57,0.00,,---,0.00,VWS V14.00,2013-01-08 09:14:00,
2013-01-08 02:19:00,42.9,27.4,29.89,SW,228,1.0,4.0,54,0.00,,---,0.00,VWS V14.00,2013-01-08 09:19:00,
2013-01-08 02:24:00,41.7,28.0,29.89,SSW,209,0.0,4.0,58,0.00,,---,0.00,VWS V14.00,2013-01-08 09:24:00,
2013-01-08 02:29:00,41.4,27.8,29.89,SW,221,0.0,4.0,58,0.00,,---,0.00,VWS V14.00,2013-01-08 09:29:00,
2013-01-08 02:34:00,40.3,26.7,29.89,SE,126,0.0,0.0,58,0.00,,---,0.00,VWS V14.00,2013-01-08 09:34:00,
2013-01-08 02:39:00,38.9,26.2,29.89,SE,124,0.0,0.0,60,0.00,,---,0.00,VWS V14.00,2013-01-08 09:39:00,
2013-01-08 02:44:00,37.6,25.8,29.89,SE,124,0.0,0.0,62,0.00,,---,0.00,VWS V14.00,2013-01-08 09:44:00,
2013-01-08 02:49:00,36.8,25.8,29.89,SE,124,0.0,0.0,64,0.00,,---,0.00,VWS V14.00,2013-01-08 09:49:00,
2013-01-08 02:54:00,36.0,25.8,29.89,SE,128,0.0,0.0,66,0.00,,---,0.00,VWS V14.00,2013-01-08 09:54:00,
2013-01-08 02:59:00,35.5,25.3,29.90,ESE,119,0.0,0.0,66,0.00,,---,0.00,VWS V14.00,2013-01-08 09:59:00,
2013-01-08 03:04:00,34.9,25.4,29.90,ESE,108,0.0,0.0,68,0.00,,---,0.00,VWS V14.00,2013-01-08 10:04:00,
2013-01-08 03:09:00,34.6,25.1,29.89,ESE,108,0.0,0.0,68,0.00,,---,0.00,VWS V14.00,2013-01-08 10:09:00,
2013-01-08 03:14:00,34.6,25.5,29.90,ESE,103,0.0,0.0,69,0.00,,---,0.00,VWS V14.00,2013-01-08 10:14:00,
2013-01-08 03:19:00,34.2,25.1,29.89,ESE,103,0.0,0.0,69,0.00,,---,0.00,VWS V14.00,2013-01-08 10:19:00,
2013-01-08 03:24:00,34.1,25.4,29.89,ESE,103,0.0,0.0,70,0.00,,---,0.00,VWS V14.00,2013-01-08 10:24:00,
2013-01-08 03:29:00,34.0,24.9,29.89,ESE,103,0.0,0.0,69,0.00,,---,0.00,VWS V14.00,2013-01-08 10:29:00,
2013-01-08 03:34:00,33.5,25.1,29.89,ESE,103,0.0,0.0,71,0.00,,---,0.00,VWS V14.00,2013-01-08 10:34:00,
2013-01-08 03:39:00,33.4,25.4,29.89,ESE,103,0.0,0.0,72,0.00,,---,0.00,VWS V14.00,2013-01-08 10:39:00,
2013-01-08 03:44:00,33.8,25.7,29.89,ESE,103,0.0,0.0,72,0.00,,---,0.00,VWS V14.00,2013-01-08 10:44:00,
2013-01-08 03:49:00,34.0,25.6,29.89,ESE,103,0.0,0.0,71,0.00,,---,0.00,VWS V14.00,2013-01-08 10:49:00,
2013-01-08 03:55:00,33.9,25.5,29.89,ESE,103,0.0,0.0,71,0.00,,---,0.00,VWS V14.00,2013-01-08 10:55:00,
2013-01-08 04:00:00,33.5,25.1,29.89,ESE,103,0.0,0.0,71,0.00,,---,0.00,VWS V14.00,2013-01-08 11:00:00,
2013-01-08 04:05:00,33.3,25.3,29.89,ESE,103,0.0,0.0,72,0.00,,---,0.00,VWS V14.00,2013-01-08 11:05:00,
2013-01-08 04:10:00,33.0,25.0,29.88,ESE,103,0.0,0.0,72,0.00,,---,0.00,VWS V14.00,2013-01-08 11:10:00,
2013-01-08 04:15:00,32.8,25.1,29.88,ESE,103,0.0,0.0,73,0.00,,---,0.00,VWS V14.00,2013-01-08 11:15:00,
2013-01-08 04:20:00,32.6,24.9,29.88,ESE,103,0.0,0.0,73,0.00,,---,0.00,VWS V14.00,2013-01-08 11:20:00,
2013-01-08 04:25:00,32.2,24.5,29.89,ESE,103,0.0,0.0,73,0.00,,---,0.00,VWS V14.00,2013-01-08 11:25:00,
2013-01-08 04:30:00,32.1,25.1,29.88,ESE,103,0.0,0.0,75,0.00,,---,0.00,VWS V14.00,2013-01-08 11:30:00,
2013-01-08 04:35:00,32.0,24.7,29.89,ESE,103,0.0,0.0,74,0.00,,---,0.00,VWS V14.00,2013-01-08 11:35:00,
2013-01-08 04:40:00,31.5,24.2,29.89,ESE,103,0.0,0.0,74,0.00,,---,0.00,VWS V14.00,2013-01-08 11:40:00,
2013-01-08 04:45:00,31.0,24.0,29.90,ESE,103,0.0,0.0,75,0.00,,---,0.00,VWS V14.00,2013-01-08 11:45:00,
2013-01-08 04:50:00,30.9,24.2,29.89,ESE,103,0.0,0.0,76,0.00,,---,0.00,VWS V14.00,2013-01-08 11:50:00,
2013-01-08 04:55:00,30.6,23.3,29.89,ESE,103,0.0,0.0,74,0.00,,---,0.00,VWS V14.00,2013-01-08 11:55:00,
2013-01-08 05:00:00,30.1,23.5,29.89,East,101,0.0,0.0,76,0.00,,---,0.00,VWS V14.00,2013-01-08 12:00:00,
2013-01-08 05:05:00,30.1,24.1,29.90,East,101,0.0,0.0,78,0.00,,---,0.00,VWS V14.00,2013-01-08 12:05:00,
2013-01-08 05:10:00,31.1,25.0,29.90,East,101,0.0,0.0,78,0.00,,---,0.00,VWS V14.00,2013-01-08 12:10:00,
2013-01-08 05:15:00,31.5,24.5,29.90,East,101,0.0,0.0,75,0.00,,---,0.00,VWS V14.00,2013-01-08 12:15:00,
2013-01-08 05:20:00,31.1,23.5,29.90,East,101,0.0,0.0,73,0.00,,---,0.00,VWS V14.00,2013-01-08 12:20:00,
2013-01-08 05:25:00,30.4,22.8,29.91,East,101,0.0,0.0,73,0.00,,---,0.00,VWS V14.00,2013-01-08 12:25:00,
2013-01-08 05:30:00,29.8,22.9,29.91,East,101,0.0,0.0,75,0.00,,---,0.00,VWS V14.00,2013-01-08 12:30:00,
2013-01-08 05:35:00,28.7,21.5,29.91,East,101,0.0,0.0,74,0.00,,---,0.00,VWS V14.00,2013-01-08 12:35:00,
2013-01-08 05:40:00,27.9,21.6,29.91,East,101,0.0,0.0,77,0.00,,---,0.00,VWS V14.00,2013-01-08 12:40:00,
2013-01-08 05:45:00,28.1,22.4,29.91,East,101,0.0,0.0,79,0.00,,---,0.00,VWS V14.00,2013-01-08 12:45:00,
2013-01-08 05:50:00,28.4,23.0,29.91,East,101,0.0,0.0,80,0.00,,---,0.00,VWS V14.00,2013-01-08 12:50:00,
2013-01-08 05:55:00,29.7,24.9,29.90,East,101,0.0,0.0,82,0.00,,---,0.00,VWS V14.00,2013-01-08 12:55:00,
2013-01-08 06:00:00,31.4,25.6,29.91,East,101,0.0,0.0,79,0.00,,---,0.00,VWS V14.00,2013-01-08 13:00:00,
2013-01-08 06:05:00,32.4,25.7,29.91,East,101,0.0,0.0,76,0.00,,---,0.00,VWS V14.00,2013-01-08 13:05:00,
2013-01-08 06:10:00,33.5,26.4,29.91,East,84,0.0,0.0,75,0.00,,---,0.00,VWS V14.00,2013-01-08 13:10:00,
2013-01-08 06:15:00,34.3,26.2,29.91,East,84,0.0,0.0,72,0.00,,---,0.00,VWS V14.00,2013-01-08 13:15:00,
2013-01-08 06:20:00,34.7,25.9,29.91,East,84,0.0,0.0,70,0.00,,---,0.00,VWS V14.00,2013-01-08 13:20:00,
2013-01-08 06:25:00,34.5,24.7,29.91,East,84,0.0,0.0,67,0.00,,---,0.00,VWS V14.00,2013-01-08 13:25:00,
2013-01-08 06:30:00,33.3,23.9,29.91,East,84,0.0,0.0,68,0.00,,---,0.00,VWS V14.00,2013-01-08 13:30:00,
2013-01-08 06:35:00,32.6,24.6,29.91,East,85,0.0,0.0,72,0.00,,---,0.00,VWS V14.00,2013-01-08 13:35:00,
2013-01-08 06:40:00,33.2,25.2,29.92,East,85,0.0,0.0,72,0.00,,---,0.00,VWS V14.00,2013-01-08 13:40:00,
2013-01-08 06:45:00,34.5,26.1,29.92,SW,226,2.0,10.0,71,0.00,,---,0.00,VWS V14.00,2013-01-08 13:45:00,
2013-01-08 06:50:00,35.6,25.7,29.92,SW,227,4.0,11.0,67,0.00,,---,0.00,VWS V14.00,2013-01-08 13:50:00,
2013-01-08 06:55:00,35.2,25.4,29.93,SW,235,0.0,11.0,67,0.00,,---,0.00,VWS V14.00,2013-01-08 13:55:00,
2013-01-08 07:00:00,34.4,24.6,29.93,WSW,249,0.0,11.0,67,0.00,,---,0.00,VWS V14.00,2013-01-08 14:00:00,
2013-01-08 07:06:00,33.2,24.1,29.94,WSW,251,0.0,0.0,69,0.00,,---,0.00,VWS V14.00,2013-01-08 14:06:00,
2013-01-08 07:11:00,32.4,24.1,29.94,WSW,251,0.0,0.0,71,0.00,,---,0.00,VWS V14.00,2013-01-08 14:11:00,
2013-01-08 07:16:00,31.7,24.0,29.94,SW,236,0.0,0.0,73,0.00,,---,0.00,VWS V14.00,2013-01-08 14:16:00,
2013-01-08 07:21:00,31.2,23.6,29.94,SW,236,0.0,0.0,73,0.00,,---,0.00,VWS V14.00,2013-01-08 14:21:00,
2013-01-08 07:26:00,30.2,21.9,29.94,SW,236,0.0,0.0,71,0.00,,---,0.00,VWS V14.00,2013-01-08 14:26:00,
2013-01-08 07:31:00,29.1,21.5,29.95,SW,236,0.0,0.0,73,0.00,,---,0.00,VWS V14.00,2013-01-08 14:31:00,
2013-01-08 07:36:00,28.3,21.7,29.95,SW,236,0.0,0.0,76,0.00,,---,0.00,VWS V14.00,2013-01-08 14:36:00,
2013-01-08 07:41:00,27.7,21.4,29.96,SW,236,0.0,0.0,77,0.00,,---,0.00,VWS V14.00,2013-01-08 14:41:00,
2013-01-08 07:46:00,27.6,22.2,29.96,SW,236,0.0,0.0,80,0.00,,---,0.00,VWS V14.00,2013-01-08 14:46:00,
2013-01-08 07:51:00,27.6,22.2,29.97,SW,236,0.0,0.0,80,0.00,,---,0.00,VWS V14.00,2013-01-08 14:51:00,
2013-01-08 07:56:00,27.7,22.4,29.97,SW,236,0.0,0.0,80,0.00,,---,0.00,VWS V14.00,2013-01-08 14:56:00,
2013-01-08 08:01:00,27.5,22.1,29.97,SW,236,0.0,0.0,80,0.00,,---,0.00,VWS V14.00,2013-01-08 15:01:00,
2013-01-08 08:06:00,27.9,22.8,29.97,SW,236,0.0,0.0,81,0.00,,---,0.00,VWS V14.00,2013-01-08 15:06:00,
2013-01-08 08:11:00,28.4,23.3,29.97,SW,236,0.0,0.0,81,0.00,,---,0.00,VWS V14.00,2013-01-08 15:11:00,
2013-01-08 08:16:00,29.4,24.6,29.98,SW,236,0.0,0.0,82,0.00,,---,0.00,VWS V14.00,2013-01-08 15:16:00,
2013-01-08 08:21:00,30.7,25.6,29.98,SW,236,0.0,0.0,81,0.00,,---,0.00,VWS V14.00,2013-01-08 15:21:00,
2013-01-08 08:26:00,32.3,27.1,29.98,SW,236,0.0,0.0,81,0.00,,---,0.00,VWS V14.00,2013-01-08 15:26:00,
2013-01-08 08:31:00,34.1,26.7,29.98,SW,236,0.0,0.0,74,0.00,,---,0.00,VWS V14.00,2013-01-08 15:31:00,
2013-01-08 08:36:00,36.0,27.2,29.99,SW,236,0.0,0.0,70,0.00,,---,0.00,VWS V14.00,2013-01-08 15:36:00,
2013-01-08 08:41:00,37.8,27.8,29.99,SW,236,0.0,0.0,67,0.00,,---,0.00,VWS V14.00,2013-01-08 15:41:00,
2013-01-08 08:46:00,39.0,27.1,30.00,SW,236,0.0,0.0,62,0.00,,---,0.00,VWS V14.00,2013-01-08 15:46:00,
2013-01-08 08:51:00,39.6,26.5,30.00,WSW,242,0.0,0.0,59,0.00,,---,0.00,VWS V14.00,2013-01-08 15:51:00,
2013-01-08 08:56:00,39.7,24.9,30.00,West,269,6.0,6.0,55,0.00,,---,0.00,VWS V14.00,2013-01-08 15:56:00,
2013-01-08 09:01:00,39.8,25.0,30.01,West,270,1.0,9.0,55,0.00,,---,0.00,VWS V14.00,2013-01-08 16:01:00,
2013-01-08 09:06:00,39.8,25.0,30.01,WNW,294,1.0,9.0,55,0.00,,---,0.00,VWS V14.00,2013-01-08 16:06:00,
2013-01-08 09:11:00,39.8,24.5,30.01,West,272,1.0,9.0,54,0.00,,---,0.00,VWS V14.00,2013-01-08 16:11:00,
2013-01-08 09:16:00,40.0,24.3,30.02,West,271,2.0,9.0,53,0.00,,---,0.00,VWS V14.00,2013-01-08 16:16:00,
2013-01-08 09:21:00,40.4,24.2,30.02,West,271,0.0,9.0,52,0.00,,---,0.00,VWS V14.00,2013-01-08 16:21:00,
2013-01-08 09:26:00,40.9,23.7,30.03,West,272,0.0,9.0,50,0.00,,---,0.00,VWS V14.00,2013-01-08 16:26:00,
2013-01-08 09:31:00,41.5,23.8,30.03,West,272,0.0,9.0,49,0.00,,---,0.00,VWS V14.00,2013-01-08 16:31:00,
2013-01-08 09:36:00,42.0,23.8,30.03,West,272,0.0,0.0,48,0.00,,---,0.00,VWS V14.00,2013-01-08 16:36:00,
2013-01-08 09:41:00,42.6,23.8,30.04,West,272,0.0,0.0,47,0.00,,---,0.00,VWS V14.00,2013-01-08 16:41:00,
2013-01-08 09:46:00,43.0,24.2,30.04,West,269,0.0,3.0,47,0.00,,---,0.00,VWS V14.00,2013-01-08 16:46:00,
2013-01-08 09:51:00,43.4,24.5,30.04,West,269,0.0,3.0,47,0.00,,---,0.00,VWS V14.00,2013-01-08 16:51:00,
2013-01-08 09:56:00,43.8,24.4,30.03,West,269,0.0,3.0,46,0.00,,---,0.00,VWS V14.00,2013-01-08 16:56:00,
2013-01-08 10:01:00,44.0,24.0,30.03,West,269,0.0,0.0,45,0.00,,---,0.00,VWS V14.00,2013-01-08 17:01:00,
2013-01-08 10:06:00,44.4,23.9,30.03,West,269,0.0,1.0,44,0.00,,---,0.00,VWS V14.00,2013-01-08 17:06:00,
2013-01-08 10:11:00,44.7,24.1,30.03,West,269,0.0,2.0,44,0.00,,---,0.00,VWS V14.00,2013-01-08 17:11:00,
2013-01-08 10:16:00,45.0,23.9,30.03,West,263,0.0,3.0,43,0.00,,---,0.00,VWS V14.00,2013-01-08 17:16:00,
2013-01-08 10:21:00,45.2,24.6,30.03,West,263,0.0,3.0,44,0.00,,---,0.00,VWS V14.00,2013-01-08 17:21:00,
2013-01-08 10:26:00,45.6,24.4,30.03,West,279,2.0,3.0,43,0.00,,---,0.00,VWS V14.00,2013-01-08 17:26:00,
2013-01-08 10:31:00,46.1,24.3,30.04,WSW,257,0.0,0.0,42,0.00,,---,0.00,VWS V14.00,2013-01-08 17:31:00,
2013-01-08 10:36:00,46.3,23.9,30.04,WNW,282,2.0,5.0,41,0.00,,---,0.00,VWS V14.00,2013-01-08 17:36:00,
2013-01-08 10:41:00,46.4,24.0,30.04,WNW,296,0.0,5.0,41,0.00,,---,0.00,VWS V14.00,2013-01-08 17:41:00,
2013-01-08 10:46:00,46.7,24.3,30.04,West,277,2.0,12.0,41,0.00,,---,0.00,VWS V14.00,2013-01-08 17:46:00,
2013-01-08 10:51:00,47.1,23.4,30.04,West,281,0.0,12.0,39,0.00,,---,0.00,VWS V14.00,2013-01-08 17:51:00,
2013-01-08 10:56:00,47.6,23.3,30.04,West,268,1.0,12.0,38,0.00,,---,0.00,VWS V14.00,2013-01-08 17:56:00,
2013-01-08 11:01:00,47.9,23.5,30.03,West,270,0.0,1.0,38,0.00,,---,0.00,VWS V14.00,2013-01-08 18:01:00,
2013-01-08 11:06:00,48.2,23.2,30.03,West,276,2.0,4.0,37,0.00,,---,0.00,VWS V14.00,2013-01-08 18:06:00,
2013-01-08 11:11:00,48.3,22.6,30.03,WNW,302,0.0,11.0,36,0.00,,---,0.00,VWS V14.00,2013-01-08 18:11:00,
2013-01-08 11:16:00,48.7,23.0,30.03,West,273,0.0,11.0,36,0.00,,---,0.00,VWS V14.00,2013-01-08 18:16:00,
2013-01-08 11:21:00,48.9,22.5,30.03,WNW,283,1.0,11.0,35,0.00,,---,0.00,VWS V14.00,2013-01-08 18:21:00,
2013-01-08 11:26:00,49.4,22.2,30.03,West,275,7.0,12.0,34,0.00,,---,0.00,VWS V14.00,2013-01-08 18:26:00,
2013-01-08 11:31:00,49.3,22.1,30.03,West,271,2.0,2.0,34,0.00,,---,0.00,VWS V14.00,2013-01-08 18:31:00,
2013-01-08 11:36:00,49.7,21.8,30.03,WNW,284,7.0,13.0,33,0.00,,---,0.00,VWS V14.00,2013-01-08 18:36:00,
2013-01-08 11:42:00,49.5,21.6,30.03,WNW,286,10.0,15.0,33,0.00,,---,0.00,VWS V14.00,2013-01-08 18:42:00,
2013-01-08 11:47:00,49.4,21.5,30.03,West,260,14.0,15.0,33,0.00,,---,0.00,VWS V14.00,2013-01-08 18:47:00,
2013-01-08 11:52:00,49.7,21.8,30.03,NW,315,2.0,15.0,33,0.00,,---,0.00,VWS V14.00,2013-01-08 18:52:00,
2013-01-08 11:57:00,49.8,21.1,30.02,West,268,8.0,15.0,32,0.00,,---,0.00,VWS V14.00,2013-01-08 18:57:00,
2013-01-08 12:02:00,50.0,22.0,30.02,West,265,4.0,9.0,33,0.00,,---,0.00,VWS V14.00,2013-01-08 19:02:00,
2013-01-08 12:07:00,50.3,21.6,30.03,West,277,2.0,12.0,32,0.00,,---,0.00,VWS V14.00,2013-01-08 19:07:00,
2013-01-08 12:12:00,50.3,22.3,30.03,West,260,8.0,12.0,33,0.00,,---,0.00,VWS V14.00,2013-01-08 19:12:00,
2013-01-08 12:17:00,50.3,21.6,30.03,West,277,10.0,12.0,32,0.00,,---,0.00,VWS V14.00,2013-01-08 19:17:00,
2013-01-08 12:22:00,50.1,21.4,30.02,West,279,3.0,12.0,32,0.00,,---,0.00,VWS V14.00,2013-01-08 19:22:00,
2013-01-08 12:27:00,50.4,21.7,30.02,WNW,292,4.0,12.0,32,0.00,,---,0.00,VWS V14.00,2013-01-08 19:27:00,
2013-01-08 12:32:00,50.6,21.9,30.02,WNW,286,7.0,9.0,32,0.00,,---,0.00,VWS V14.00,2013-01-08 19:32:00,
2013-01-08 12:37:00,50.6,21.9,30.02,West,265,9.0,12.0,32,0.00,,---,0.00,VWS V14.00,2013-01-08 19:37:00,
2013-01-08 12:42:00,50.7,20.4,30.02,WNW,283,7.0,14.0,30,0.00,,---,0.00,VWS V14.00,2013-01-08 19:42:00,
2013-01-08 12:47:00,51.0,21.5,30.02,West,259,7.0,14.0,31,0.00,,---,0.00,VWS V14.00,2013-01-08 19:47:00,
2013-01-08 12:52:00,51.0,21.5,30.02,NW,305,1.0,14.0,31,0.00,,---,0.00,VWS V14.00,2013-01-08 19:52:00,
2013-01-08 12:57:00,51.7,20.5,30.02,WNW,297,7.0,14.0,29,0.00,,---,0.00,VWS V14.00,2013-01-08 19:57:00,
2013-01-08 13:02:00,51.8,20.6,30.02,West,276,7.0,11.0,29,0.00,,---,0.00,VWS V14.00,2013-01-08 20:02:00,
2013-01-08 13:07:00,51.7,19.7,30.01,WNW,296,1.0,13.0,28,0.00,,---,0.00,VWS V14.00,2013-01-08 20:07:00,
2013-01-08 13:12:00,52.1,20.0,30.01,West,274,6.0,13.0,28,0.00,,---,0.00,VWS V14.00,2013-01-08 20:12:00,
2013-01-08 13:17:00,52.2,20.1,30.00,West,274,2.0,13.0,28,0.00,,---,0.00,VWS V14.00,2013-01-08 20:17:00,
2013-01-08 13:22:00,52.7,20.5,30.01,NW,324,1.0,13.0,28,0.00,,---,0.00,VWS V14.00,2013-01-08 20:22:00,
2013-01-08 13:27:00,53.2,20.1,30.00,West,271,10.0,13.0,27,0.00,,---,0.00,VWS V14.00,2013-01-08 20:27:00,
2013-01-08 13:32:00,53.3,20.2,30.00,West,266,7.0,11.0,27,0.00,,---,0.00,VWS V14.00,2013-01-08 20:32:00,
2013-01-08 13:37:00,53.4,19.4,30.00,WNW,284,12.0,12.0,26,0.00,,---,0.00,VWS V14.00,2013-01-08 20:37:00,
2013-01-08 13:42:00,53.8,19.7,30.00,WNW,286,8.0,13.0,26,0.00,,---,0.00,VWS V14.00,2013-01-08 20:42:00,
2013-01-08 13:47:00,53.9,19.8,30.00,WNW,293,4.0,13.0,26,0.00,,---,0.00,VWS V14.00,2013-01-08 20:47:00,
2013-01-08 13:52:00,54.4,19.3,30.00,WNW,293,2.0,13.0,25,0.00,,---,0.00,VWS V14.00,2013-01-08 20:52:00,
2013-01-08 13:57:00,54.6,19.5,29.99,West,278,7.0,14.0,25,0.00,,---,0.00,VWS V14.00,2013-01-08 20:57:00,
2013-01-08 14:02:00,54.6,19.5,29.99,WNW,300,1.0,9.0,25,0.00,,---,0.00,VWS V14.00,2013-01-08 21:02:00,
2013-01-08 14:07:00,54.6,19.5,29.99,West,274,2.0,13.0,25,0.00,,---,0.00,VWS V14.00,2013-01-08 21:07:00,
2013-01-08 14:12:00,54.4,19.3,29.99,West,278,8.0,14.0,25,0.00,,---,0.00,VWS V14.00,2013-01-08 21:12:00,
2013-01-08 14:17:00,54.4,19.3,29.99,West,278,12.0,14.0,25,0.00,,---,0.00,VWS V14.00,2013-01-08 21:17:00,
2013-01-08 14:22:00,54.1,19.1,29.99,WNW,285,12.0,14.0,25,0.00,,---,0.00,VWS V14.00,2013-01-08 21:22:00,
2013-01-08 14:27:00,54.1,19.1,29.99,West,279,1.0,14.0,25,0.00,,---,0.00,VWS V14.00,2013-01-08 21:27:00,
2013-01-08 14:32:00,54.3,19.2,30.00,WNW,302,12.0,13.0,25,0.00,,---,0.00,VWS V14.00,2013-01-08 21:32:00,
2013-01-08 14:37:00,54.4,18.4,30.00,WNW,292,10.0,15.0,24,0.00,,---,0.00,VWS V14.00,2013-01-08 21:37:00,
2013-01-08 14:42:00,54.3,19.2,29.99,WNW,296,9.0,15.0,25,0.00,,---,0.00,VWS V14.00,2013-01-08 21:42:00,
2013-01-08 14:47:00,54.4,18.4,29.99,West,264,6.0,15.0,24,0.00,,---,0.00,VWS V14.00,2013-01-08 21:47:00,
2013-01-08 14:52:00,54.4,19.3,30.00,WNW,293,11.0,15.0,25,0.00,,---,0.00,VWS V14.00,2013-01-08 21:52:00,
2013-01-08 14:57:00,54.5,19.4,30.00,WNW,285,6.0,15.0,25,0.00,,---,0.00,VWS V14.00,2013-01-08 21:57:00,
2013-01-08 15:02:00,54.5,18.5,30.00,WNW,290,11.0,13.0,24,0.00,,---,0.00,VWS V14.00,2013-01-08 22:02:00,
2013-01-08 15:07:00,54.4,19.3,30.00,WNW,285,10.0,15.0,25,0.00,,---,0.00,VWS V14.00,2013-01-08 22:07:00,
2013-01-08 15:12:00,54.5,19.4,30.00,WNW,291,10.0,24.0,25,0.00,,---,0.00,VWS V14.00,2013-01-08 22:12:00,
2013-01-08 15:17:00,54.6,19.5,30.00,WNW,302,5.0,24.0,25,0.00,,---,0.00,VWS V14.00,2013-01-08 22:17:00,
2013-01-08 15:22:00,54.6,19.5,30.01,West,274,13.0,24.0,25,0.00,,---,0.00,VWS V14.00,2013-01-08 22:22:00,
2013-01-08 15:27:00,54.8,19.7,30.01,West,280,13.0,24.0,25,0.00,,---,0.00,VWS V14.00,2013-01-08 22:27:00,
2013-01-08 15:32:00,54.5,19.4,30.01,WNW,301,6.0,9.0,25,0.00,,---,0.00,VWS V14.00,2013-01-08 22:32:00,
2013-01-08 15:37:00,54.6,19.5,30.01,WNW,297,12.0,13.0,25,0.00,,---,0.00,VWS V14.00,2013-01-08 22:37:00,
2013-01-08 15:42:00,54.2,18.2,30.01,NW,322,6.0,16.0,24,0.00,,---,0.00,VWS V14.00,2013-01-08 22:42:00,
2013-01-08 15:47:00,54.2,18.2,30.01,WNW,291,3.0,16.0,24,0.00,,---,0.00,VWS V14.00,2013-01-08 22:47:00,
2013-01-08 15:52:00,54.4,18.4,30.01,WNW,296,6.0,16.0,24,0.00,,---,0.00,VWS V14.00,2013-01-08 22:52:00,
2013-01-08 15:57:00,54.4,18.4,30.01,NW,304,7.0,16.0,24,0.00,,---,0.00,VWS V14.00,2013-01-08 22:57:00,
2013-01-08 16:02:00,54.4,19.3,30.01,WNW,293,7.0,10.0,25,0.00,,---,0.00,VWS V14.00,2013-01-08 23:02:00,
2013-01-08 16:07:00,54.2,18.2,30.02,WNW,302,10.0,14.0,24,0.00,,---,0.00,VWS V14.00,2013-01-08 23:07:00,
2013-01-08 16:12:00,54.0,18.0,30.02,WNW,286,3.0,14.0,24,0.00,,---,0.00,VWS V14.00,2013-01-08 23:12:00,
2013-01-08 16:17:00,53.9,18.0,30.02,West,279,3.0,14.0,24,0.00,,---,0.00,VWS V14.00,2013-01-08 23:17:00,
2013-01-08 16:22:00,53.7,17.8,30.02,WNW,294,10.0,14.0,24,0.00,,---,0.00,VWS V14.00,2013-01-08 23:22:00,
2013-01-08 16:27:00,53.5,17.6,30.02,West,281,7.0,14.0,24,0.00,,---,0.00,VWS V14.00,2013-01-08 23:27:00,
2013-01-08 16:32:00,53.5,17.6,30.02,WNW,285,5.0,5.0,24,0.00,,---,0.00,VWS V14.00,2013-01-08 23:32:00,
2013-01-08 16:37:00,53.5,17.6,30.02,NW,322,1.0,13.0,24,0.00,,---,0.00,VWS V14.00,2013-01-08 23:37:00,
2013-01-08 16:42:00,53.4,17.5,30.02,WNW,292,9.0,13.0,24,0.00,,---,0.00,VWS V14.00,2013-01-08 23:42:00,
2013-01-08 16:47:00,53.0,17.2,30.02,WNW,297,7.0,13.0,24,0.00,,---,0.00,VWS V14.00,2013-01-08 23:47:00,
2013-01-08 16:52:00,52.7,17.9,30.03,NW,317,1.0,13.0,25,0.00,,---,0.00,VWS V14.00,2013-01-08 23:52:00,
2013-01-08 16:57:00,52.4,17.6,30.02,WNW,287,6.0,13.0,25,0.00,,---,0.00,VWS V14.00,2013-01-08 23:57:00,
2013-01-08 17:02:00,51.9,19.8,30.02,West,273,4.0,6.0,28,0.00,,---,0.00,VWS V14.00,2013-01-09 00:02:00,
2013-01-08 17:07:00,51.3,20.1,30.02,West,281,2.0,11.0,29,0.00,,---,0.00,VWS V14.00,2013-01-09 00:07:00,
2013-01-08 17:12:00,50.8,19.7,30.02,West,277,0.0,11.0,29,0.00,,---,0.00,VWS V14.00,2013-01-09 00:12:00,
2013-01-08 17:17:00,50.1,20.7,30.02,West,275,0.0,11.0,31,0.00,,---,0.00,VWS V14.00,2013-01-09 00:17:00,
2013-01-08 17:22:00,49.3,21.4,30.03,West,275,0.0,11.0,33,0.00,,---,0.00,VWS V14.00,2013-01-09 00:22:00,
2013-01-08 17:27:00,48.5,22.1,30.02,West,275,0.0,11.0,35,0.00,,---,0.00,VWS V14.00,2013-01-09 00:27:00,
2013-01-08 17:32:00,47.6,22.0,30.02,West,275,0.0,0.0,36,0.00,,---,0.00,VWS V14.00,2013-01-09 00:32:00,
2013-01-08 17:37:00,46.9,21.4,30.03,West,275,0.0,0.0,36,0.00,,---,0.00,VWS V14.00,2013-01-09 00:37:00,
2013-01-08 17:42:00,46.1,20.0,30.03,West,275,0.0,0.0,35,0.00,,---,0.00,VWS V14.00,2013-01-09 00:42:00,
2013-01-08 17:47:00,44.3,19.0,30.03,West,275,0.0,0.0,36,0.00,,---,0.00,VWS V14.00,2013-01-09 00:47:00,
2013-01-08 17:52:00,41.9,18.2,30.03,West,275,0.0,0.0,38,0.00,,---,0.00,VWS V14.00,2013-01-09 00:52:00,
2013-01-08 17:57:00,40.3,18.5,30.03,West,275,0.0,0.0,41,0.00,,---,0.00,VWS V14.00,2013-01-09 00:57:00,
2013-01-08 18:02:00,39.7,19.6,30.04,West,275,0.0,0.0,44,0.00,,---,0.00,VWS V14.00,2013-01-09 01:02:00,
2013-01-08 18:07:00,39.5,19.4,30.05,West,275,0.0,0.0,44,0.00,,---,0.00,VWS V14.00,2013-01-09 01:07:00,
2013-01-08 18:12:00,39.4,19.8,30.04,West,275,0.0,0.0,45,0.00,,---,0.00,VWS V14.00,2013-01-09 01:12:00,
2013-01-08 18:17:00,39.5,20.5,30.04,West,275,0.0,0.0,46,0.00,,---,0.00,VWS V14.00,2013-01-09 01:17:00,
2013-01-08 18:22:00,39.4,20.4,30.05,West,275,0.0,0.0,46,0.00,,---,0.00,VWS V14.00,2013-01-09 01:22:00,
2013-01-08 18:27:00,38.8,19.3,30.05,West,275,0.0,0.0,45,0.00,,---,0.00,VWS V14.00,2013-01-09 01:27:00,
2013-01-08 18:33:00,38.1,19.7,30.05,West,275,0.0,0.0,47,0.00,,---,0.00,VWS V14.00,2013-01-09 01:33:00,
2013-01-08 18:38:00,38.0,20.5,30.05,West,275,0.0,0.0,49,0.00,,---,0.00,VWS V14.00,2013-01-09 01:38:00,
2013-01-08 18:43:00,37.9,20.0,30.06,West,275,0.0,0.0,48,0.00,,---,0.00,VWS V14.00,2013-01-09 01:43:00,
2013-01-08 18:48:00,37.5,20.1,30.06,West,275,0.0,0.0,49,0.00,,---,0.00,VWS V14.00,2013-01-09 01:48:00,
2013-01-08 19:20:00,32.6,18.2,30.06,West,275,0.0,0.0,55,0.00,,---,0.00,VWS V14.00,2013-01-09 02:20:00,
2013-01-08 19:25:00,31.8,16.6,30.06,West,275,0.0,0.0,53,0.00,,---,0.00,VWS V14.00,2013-01-09 02:25:00,
2013-01-08 19:30:00,31.1,16.8,30.06,West,275,0.0,0.0,55,0.00,,---,0.00,VWS V14.00,2013-01-09 02:30:00,
2013-01-08 19:35:00,29.9,16.5,30.06,West,275,0.0,0.0,57,0.00,,---,0.00,VWS V14.00,2013-01-09 02:35:00,
2013-01-08 19:40:00,29.5,17.3,30.06,West,275,0.0,0.0,60,0.00,,---,0.00,VWS V14.00,2013-01-09 02:40:00,
2013-01-08 19:45:00,29.4,17.2,30.06,West,271,0.0,0.0,60,0.00,,---,0.00,VWS V14.00,2013-01-09 02:45:00,
2013-01-08 19:50:00,30.5,18.7,30.06,West,271,0.0,0.0,61,0.00,,---,0.00,VWS V14.00,2013-01-09 02:50:00,
2013-01-08 19:55:00,31.8,18.7,30.07,West,270,0.0,0.0,58,0.00,,---,0.00,VWS V14.00,2013-01-09 02:55:00,
2013-01-08 20:00:00,32.5,19.4,30.07,West,270,0.0,0.0,58,0.00,,---,0.00,VWS V14.00,2013-01-09 03:00:00,
2013-01-08 20:05:00,33.2,19.2,30.07,West,270,0.0,0.0,56,0.00,,---,0.00,VWS V14.00,2013-01-09 03:05:00,
2013-01-08 20:10:00,33.1,18.7,30.07,West,270,0.0,0.0,55,0.00,,---,0.00,VWS V14.00,2013-01-09 03:10:00,
2013-01-08 20:16:00,32.6,18.2,30.08,West,270,0.0,0.0,55,0.00,,---,0.00,VWS V14.00,2013-01-09 03:16:00,
2013-01-08 20:21:00,31.7,17.8,30.08,West,270,0.0,0.0,56,0.00,,---,0.00,VWS V14.00,2013-01-09 03:21:00,
2013-01-08 20:26:00,30.5,16.7,30.09,West,270,0.0,0.0,56,0.00,,---,0.00,VWS V14.00,2013-01-09 03:26:00,
2013-01-08 20:31:00,28.9,15.6,30.09,West,270,0.0,0.0,57,0.00,,---,0.00,VWS V14.00,2013-01-09 03:31:00,
2013-01-08 20:36:00,28.2,17.2,30.10,West,270,0.0,0.0,63,0.00,,---,0.00,VWS V14.00,2013-01-09 03:36:00,
2013-01-08 20:41:00,28.4,17.4,30.10,West,270,0.0,0.0,63,0.00,,---,0.00,VWS V14.00,2013-01-09 03:41:00,
2013-01-08 20:46:00,28.6,17.6,30.10,West,270,0.0,0.0,63,0.00,,---,0.00,VWS V14.00,2013-01-09 03:46:00,
2013-01-08 20:51:00,29.6,19.3,30.11,West,269,0.0,0.0,65,0.00,,---,0.00,VWS V14.00,2013-01-09 03:51:00,
2013-01-08 20:56:00,31.8,20.3,30.11,West,269,0.0,0.0,62,0.00,,---,0.00,VWS V14.00,2013-01-09 03:56:00,
2013-01-08 21:01:00,33.3,20.1,30.11,West,269,0.0,0.0,58,0.00,,---,0.00,VWS V14.00,2013-01-09 04:01:00,
2013-01-08 21:06:00,33.8,20.2,30.12,West,269,0.0,0.0,57,0.00,,---,0.00,VWS V14.00,2013-01-09 04:06:00,
2013-01-08 21:11:00,34.1,20.1,30.12,West,269,0.0,0.0,56,0.00,,---,0.00,VWS V14.00,2013-01-09 04:11:00,
2013-01-08 21:16:00,34.6,20.1,30.12,West,269,0.0,0.0,55,0.00,,---,0.00,VWS V14.00,2013-01-09 04:16:00,
2013-01-08 21:21:00,34.9,19.5,30.12,West,269,0.0,0.0,53,0.00,,---,0.00,VWS V14.00,2013-01-09 04:21:00,
2013-01-08 21:26:00,35.0,19.6,30.12,West,269,0.0,0.0,53,0.00,,---,0.00,VWS V14.00,2013-01-09 04:26:00,
2013-01-08 21:31:00,35.2,19.8,30.12,West,269,0.0,0.0,53,0.00,,---,0.00,VWS V14.00,2013-01-09 04:31:00,
2013-01-08 21:36:00,35.0,20.0,30.12,West,269,0.0,0.0,54,0.00,,---,0.00,VWS V14.00,2013-01-09 04:36:00,
2013-01-08 21:41:00,35.1,19.7,30.12,West,269,0.0,0.0,53,0.00,,---,0.00,VWS V14.00,2013-01-09 04:41:00,
2013-01-08 21:46:00,34.6,19.2,30.12,West,269,0.0,0.0,53,0.00,,---,0.00,VWS V14.00,2013-01-09 04:46:00,
2013-01-08 21:51:00,34.2,19.3,30.12,West,269,0.0,0.0,54,0.00,,---,0.00,VWS V14.00,2013-01-09 04:51:00,
2013-01-08 21:56:00,33.1,18.7,30.12,West,269,0.0,0.0,55,0.00,,---,0.00,VWS V14.00,2013-01-09 04:56:00,
2013-01-08 22:00:00,33.0,19.4,30.12,West,269,0.0,0.0,57,0.00,,---,0.00,VWS V14.00,2013-01-09 05:00:00,
2013-01-08 22:01:00,33.1,19.9,30.13,West,269,0.0,0.0,58,0.00,,---,0.00,VWS V14.00,2013-01-09 05:01:00,
2013-01-08 22:02:00,33.3,20.1,30.13,West,269,0.0,0.0,58,0.00,,---,0.00,VWS V14.00,2013-01-09 05:02:00,
2013-01-08 22:07:00,34.1,20.5,30.13,West,269,0.0,0.0,57,0.00,,---,0.00,VWS V14.00,2013-01-09 05:07:00,
2013-01-08 22:12:00,34.3,19.4,30.13,West,269,0.0,0.0,54,0.00,,---,0.00,VWS V14.00,2013-01-09 05:12:00,
2013-01-08 22:17:00,33.8,18.5,30.13,West,269,0.0,0.0,53,0.00,,---,0.00,VWS V14.00,2013-01-09 05:17:00,
2013-01-08 22:22:00,32.4,18.0,30.14,West,269,0.0,0.0,55,0.00,,---,0.00,VWS V14.00,2013-01-09 05:22:00,
2013-01-08 22:27:00,31.0,17.2,30.14,West,269,0.0,0.0,56,0.00,,---,0.00,VWS V14.00,2013-01-09 05:27:00,
2013-01-08 22:32:00,29.9,17.7,30.14,West,269,0.0,0.0,60,0.00,,---,0.00,VWS V14.00,2013-01-09 05:32:00,
2013-01-08 22:37:00,28.5,16.8,30.15,West,269,0.0,0.0,61,0.00,,---,0.00,VWS V14.00,2013-01-09 05:37:00,
2013-01-08 22:42:00,27.7,16.8,30.15,West,269,0.0,0.0,63,0.00,,---,0.00,VWS V14.00,2013-01-09 05:42:00,
2013-01-08 22:48:00,27.1,16.6,30.15,West,269,0.0,0.0,64,0.00,,---,0.00,VWS V14.00,2013-01-09 05:48:00,
2013-01-08 22:52:00,26.6,16.4,30.15,West,269,0.0,0.0,65,0.00,,---,0.00,VWS V14.00,2013-01-09 05:52:00,
2013-01-08 22:57:00,26.3,16.9,30.15,West,269,0.0,0.0,67,0.00,,---,0.00,VWS V14.00,2013-01-09 05:57:00,
2013-01-08 23:02:00,26.1,16.0,30.16,West,269,0.0,0.0,65,0.00,,---,0.00,VWS V14.00,2013-01-09 06:02:00,
2013-01-08 23:07:00,25.9,17.5,30.16,West,269,0.0,0.0,70,0.00,,---,0.00,VWS V14.00,2013-01-09 06:07:00,
2013-01-08 23:12:00,27.5,19.4,30.16,West,269,0.0,0.0,71,0.00,,---,0.00,VWS V14.00,2013-01-09 06:12:00,
2013-01-08 23:17:00,28.9,19.3,30.15,West,269,0.0,0.0,67,0.00,,---,0.00,VWS V14.00,2013-01-09 06:17:00,
2013-01-08 23:22:00,29.6,19.3,30.15,West,269,0.0,0.0,65,0.00,,---,0.00,VWS V14.00,2013-01-09 06:22:00,
2013-01-08 23:28:00,30.1,19.8,30.15,West,269,0.0,0.0,65,0.00,,---,0.00,VWS V14.00,2013-01-09 06:28:00,
2013-01-08 23:33:00,30.5,19.8,30.15,West,269,0.0,0.0,64,0.00,,---,0.00,VWS V14.00,2013-01-09 06:33:00,
2013-01-08 23:38:00,30.7,19.6,30.15,West,269,0.0,0.0,63,0.00,,---,0.00,VWS V14.00,2013-01-09 06:38:00,
2013-01-08 23:43:00,31.0,19.9,30.15,West,269,0.0,0.0,63,0.00,,---,0.00,VWS V14.00,2013-01-09 06:43:00,
2013-01-08 23:48:00,31.5,20.4,30.15,West,269,0.0,0.0,63,0.00,,---,0.00,VWS V14.00,2013-01-09 06:48:00,
2013-01-08 23:53:00,32.7,20.8,30.15,West,268,0.0,0.0,61,0.00,,---,0.00,VWS V14.00,2013-01-09 06:53:00,
2013-01-08 23:58:00,33.1,20.4,30.15,West,267,0.0,0.0,59,0.00,,---,0.00,VWS V14.00,2013-01-09 06:58:00,